Theta_e
339 339 339 339 339 337 335 333 332 333 335 336 337 336 336 335 335 334 333 331 331 329 328 328 330 331 328 326 327 326 323 321 318 314 311 309 305 302 301 301 301 301 301 300 300 300 300 300 300 300 300 300 300 299 299 299 299 299 299 299 299 300 301 301 301 302 302 301 299 299 298 298 297 297 296 296 295 295 295 295 296 296 296 296 296
339 339 340 340 339 337 334 332 332 333 336 337 337 336 336 336 335 334 332 331 330 329 327 328 331 330 327 326 327 325 322 320 316 312 310 307 305 303 301 301 301 301 300 300 300 300 300 300 300 299 299 299 299 299 299 299 299 299 299 299 299 298 299 298 298 299 299 299 298 298 298 297 297 296 296 295 295 295 295 295 296 296 296 296 296
339 339 340 340 339 336 334 332 331 333 336 337 337 337 337 336 335 333 332 331 330 328 328 330 331 329 327 327 326 324 322 319 315 312 309 307 304 302 301 301 300 300 300 300 300 300 300 300 299 299 299 299 299 298 299 298 298 298 298 298 298 298 298 298 298 298 298 298 298 298 297 297 296 296 295 295 295 295 295 296 296 295 296 296 296
339 339 340 340 339 336 334 332 331 333 335 335 336 337 337 336 335 333 332 331 329 328 329 331 331 328 327 327 326 323 321 319 315 312 308 306 303 302 301 300 300 300 300 300 300 300 300 299 299 299 299 298 298 298 298 298 298 298 298 298 298 298 298 298 297 297 297 297 297 297 297 297 296 296 295 295 295 295 295 296 296 296 296 296 296
339 339 340 340 339 337 335 333 333 334 334 335 336 337 337 336 334 333 331 330 329 330 331 331 330 328 327 327 325 323 321 318 314 311 308 305 303 301 300 300 300 300 299 299 299 299 299 299 299 299 298 298 298 298 298 298 298 298 298 298 298 298 298 297 297 297 297 297 297 297 297 296 295 295 296 296 296 296 296 296 296 296 296 296 296
339 339 340 340 339 337 336 335 334 334 335 336 337 337 336 335 334 332 331 330 330 330 330 329 328 327 327 326 324 322 319 316 313 310 307 304 302 301 300 300 299 299 299 299 299 299 299 299 298 298 298 298 298 298 298 298 298 298 297 297 297 297 297 297 297 297 297 297 297 297 296 296 295 296 296 297 297 297 296 296 296 295 295 296 296
339 339 340 340 339 337 335 335 335 336 336 337 337 336 335 335 333 331 330 330 331 330 328 328 327 327 326 325 323 321 318 315 313 310 306 304 302 301 300 300 299 299 299 298 298 298 298 298 298 298 297 297 297 297 297 298 297 297 297 297 297 297 297 297 297 297 297 297 297 296 296 296 296 297 298 298 298 298 297 296 296 296 295 295 296
339 339 339 340 339 337 334 334 336 337 337 337 336 334 334 334 332 331 329 329 330 329 328 327 327 326 326 325 323 321 318 315 313 310 306 303 301 300 300 299 299 299 298 298 298 298 298 298 298 297 297 297 297 297 297 297 297 297 297 297 297 297 297 297 297 297 297 297 297 296 296 296 296 298 299 299 299 298 298 297 296 296 295 295 295
339 339 339 339 339 337 334 334 335 336 336 336 335 333 333 333 332 330 329 329 329 329 328 327 327 326 326 325 323 320 318 316 313 309 306 303 301 300 300 299 299 299 298 298 298 298 298 298 297 297 297 297 297 297 297 297 297 297 297 297 297 296 297 297 297 297 297 297 296 296 296 296 297 299 300 299 299 299 299 297 296 296 295 295 295
339 339 339 339 338 337 336 334 334 335 335 335 333 332 333 333 331 330 330 328 328 328 328 327 326 327 326 325 323 320 318 316 313 309 305 302 301 300 300 299 299 299 299 298 298 298 298 298 298 297 297 297 297 297 297 297 297 296 297 297 297 297 297 297 297 297 297 297 297 296 296 296 298 300 300 300 299 299 298 297 297 296 296 296 296
339 339 339 339 338 337 337 336 335 334 333 332 331 332 333 333 331 331 331 329 328 328 328 327 326 327 327 325 323 321 320 317 313 308 304 302 301 301 300 300 299 299 299 299 299 298 298 298 298 298 297 297 297 297 297 297 297 297 297 297 297 297 297 297 297 297 297 297 297 296 296 296 298 300 300 300 300 300 298 297 297 297 296 296 296
339 339 339 339 338 338 338 336 335 334 332 332 332 332 333 332 332 332 331 329 328 328 327 326 327 327 326 325 323 321 319 317 312 307 304 303 301 301 301 300 300 300 300 300 299 299 299 299 298 298 298 298 298 297 298 298 298 298 297 297 297 297 297 297 297 297 297 297 297 296 296 297 298 300 300 300 300 300 299 298 298 298 297 297 297
338 338 338 338 338 338 337 336 335 334 332 332 333 334 333 332 332 333 331 329 329 328 326 326 326 327 326 325 324 322 319 316 311 308 306 303 302 301 301 301 300 300 300 300 300 299 299 299 299 299 298 298 298 298 298 299 298 298 298 297 298 298 297 297 297 297 297 297 297 296 296 297 299 300 300 300 300 300 299 298 299 298 297 297 297
338 338 338 339 339 338 336 335 335 334 332 333 333 333 332 332 333 332 329 329 329 328 327 326 327 326 326 325 323 322 319 315 312 310 307 305 303 302 301 301 301 301 301 301 300 299 299 299 299 299 298 298 299 299 298 298 298 298 298 297 298 298 298 297 297 297 297 297 296 296 297 298 299 299 300 300 300 300 299 298 299 298 297 297 298
338 338 338 338 338 337 336 336 335 334 333 333 333 333 333 334 333 331 329 330 329 328 327 327 327 326 325 324 323 322 319 316 314 311 308 306 305 303 302 301 301 302 302 301 300 299 299 300 299 299 298 298 298 298 298 298 298 298 298 297 297 297 297 297 297 298 298 297 296 296 297 298 299 299 299 300 300 299 299 299 299 298 297 297 298
337 337 337 337 337 336 336 336 335 334 334 334 334 334 334 334 332 330 330 330 329 328 327 327 326 326 325 324 323 322 320 317 314 311 309 307 306 304 303 302 302 302 301 301 300 300 299 299 299 298 298 298 298 298 298 298 298 298 297 297 297 297 297 298 298 298 299 298 297 296 296 298 299 299 299 300 300 299 299 299 299 298 297 297 297
337 337 337 337 337 337 337 335 333 334 334 334 335 335 335 333 331 331 331 330 329 328 327 326 326 326 325 325 324 323 321 318 314 311 309 308 307 305 304 304 303 302 302 302 302 301 300 299 299 298 298 298 298 298 299 298 297 298 298 297 297 297 297 297 297 298 299 298 297 296 296 297 299 299 299 299 299 299 299 299 299 298 298 298 298
337 336 336 337 337 337 336 335 333 334 335 334 335 335 335 332 330 331 331 330 329 328 327 326 326 326 326 325 324 324 322 319 315 312 309 309 308 307 306 305 304 304 303 303 303 302 302 300 299 298 298 297 297 298 298 298 297 298 298 297 297 297 296 297 297 297 298 297 297 296 296 298 300 300 299 299 299 299 299 299 299 298 298 298 298
336 336 336 336 337 337 337 336 334 334 335 336 335 335 334 332 330 330 330 329 329 328 326 326 326 326 326 325 324 323 321 319 316 313 311 310 309 309 308 306 305 305 304 304 304 304 303 301 299 298 298 297 297 297 297 297 297 297 297 297 297 297 296 296 297 297 297 297 296 296 297 299 300 300 299 299 299 299 299 299 299 299 298 298 299
335 335 335 336 337 337 337 336 334 334 335 336 336 334 333 332 330 330 330 329 328 327 326 326 326 326 326 325 324 323 322 319 317 314 312 311 310 310 309 307 307 306 306 305 305 304 304 302 300 299 298 298 298 298 298 298 297 298 298 298 298 297 296 296 296 296 297 297 296 296 297 299 300 299 299 299 299 299 299 299 299 299 298 298 299
335 335 335 336 337 337 337 337 335 334 334 336 335 334 332 332 330 330 330 329 328 327 326 326 327 326 326 325 324 324 322 320 317 315 313 312 311 310 309 309 308 307 307 306 305 305 304 303 301 300 299 299 299 299 299 299 298 298 299 298 298 298 297 296 296 296 296 296 296 296 297 299 299 299 299 298 298 299 299 299 299 299 298 298 298
335 335 335 335 337 338 337 337 336 334 334 335 334 333 332 332 331 330 329 329 328 327 326 327 327 326 325 325 325 324 321 319 317 315 313 312 311 311 310 310 309 308 308 307 306 306 305 303 302 301 300 300 301 301 301 301 300 299 298 298 298 298 297 296 296 296 296 296 296 296 297 298 299 298 298 298 298 299 299 299 299 299 298 299 299
335 335 335 335 336 336 336 335 335 334 335 335 334 333 332 332 331 330 329 329 328 327 326 326 326 325 324 325 325 323 319 317 316 315 313 312 311 311 310 310 309 309 308 308 307 307 306 304 302 302 302 301 302 303 303 302 301 299 298 299 299 299 299 298 296 295 296 296 296 296 297 298 298 298 298 298 299 299 299 299 299 299 298 299 298
335 336 336 336 335 334 334 334 335 335 335 335 333 333 332 331 331 330 329 328 327 327 326 326 326 325 324 324 324 323 320 316 315 314 313 312 311 311 310 310 309 309 309 309 308 307 306 304 303 302 303 303 303 304 304 303 302 300 301 301 302 301 300 299 296 295 295 296 296 296 297 298 299 299 299 299 299 299 299 298 298 299 299 299 298
336 336 336 335 334 333 334 335 336 335 334 334 333 332 331 331 330 329 328 327 327 327 326 326 325 325 324 324 323 323 320 317 315 315 314 313 312 311 310 310 310 309 309 309 308 307 306 305 304 303 304 304 304 304 304 303 302 301 303 303 303 302 300 298 296 295 295 296 296 296 297 299 300 300 300 300 300 300 299 299 298 298 299 299 298
336 336 335 335 334 334 335 335 335 334 332 332 332 331 330 330 329 328 328 327 327 327 326 326 325 325 324 323 323 323 321 318 316 315 314 313 312 311 310 310 310 310 309 309 308 306 305 305 305 304 304 305 304 303 303 304 303 302 303 304 303 301 298 296 296 295 295 296 296 297 298 300 300 300 300 300 300 300 299 299 298 298 299 299 298
336 336 336 335 335 334 334 334 334 333 331 330 330 331 330 329 328 328 328 327 327 326 326 325 325 324 324 323 323 323 321 319 317 316 315 314 313 312 311 311 310 310 310 309 308 306 305 305 305 305 305 305 304 303 303 305 305 303 303 304 303 301 299 298 298 297 296 296 296 297 298 300 300 300 300 300 300 300 299 299 299 299 299 299 299
335 336 336 335 335 335 335 335 334 332 331 331 331 331 330 329 328 328 328 327 327 326 326 325 325 325 325 325 324 323 320 319 318 318 317 316 314 313 312 311 311 310 310 309 308 306 304 304 304 305 305 305 303 302 303 305 306 305 304 304 303 302 301 301 301 300 297 296 296 296 298 300 300 300 300 300 300 300 299 299 299 299 299 299 299
335 336 336 335 335 334 334 334 333 331 331 331 331 331 330 329 328 328 328 328 327 327 327 326 326 326 326 325 324 323 321 319 319 319 317 316 315 314 312 312 311 310 309 308 307 305 303 303 303 303 304 303 302 302 304 305 305 305 305 304 304 303 302 302 302 302 299 297 296 296 298 300 300 300 300 300 300 300 299 299 299 299 299 299 299
335 335 335 335 334 333 332 332 332 331 331 332 331 330 329 328 327 327 327 326 326 326 327 326 326 325 325 324 323 321 320 319 318 317 315 314 313 312 312 311 310 309 307 306 305 304 303 302 302 302 302 302 303 303 305 306 305 305 305 304 304 304 303 303 303 302 300 297 296 298 299 300 301 300 300 300 300 300 300 300 300 300 299 299 299
335 335 335 335 334 332 331 331 331 331 331 331 330 329 328 327 326 326 325 325 324 325 325 325 325 324 323 322 320 319 318 317 316 315 313 312 310 310 309 308 307 306 305 303 303 302 302 302 301 301 301 301 301 302 304 305 305 305 305 305 304 304 304 303 303 302 300 297 296 298 301 301 301 300 300 300 300 300 300 300 300 300 300 299 299
334 334 334 334 333 332 331 331 331 331 330 330 329 328 328 327 326 325 324 324 323 323 323 323 323 322 321 320 319 318 317 316 316 314 312 311 309 307 306 305 304 303 303 302 302 302 301 301 301 301 301 300 299 299 300 302 303 304 304 305 304 304 303 303 302 302 300 297 296 298 300 301 300 300 300 300 300 300 300 300 300 300 300 299 299
334 333 333 332 332 332 331 331 330 329 329 329 328 327 327 327 326 325 325 324 323 322 322 322 321 320 320 319 318 317 316 316 315 313 311 310 307 305 303 302 302 302 302 301 301 301 301 301 301 301 300 300 300 298 298 299 301 302 303 304 304 303 303 302 302 301 299 297 296 297 300 300 300 300 300 300 300 300 300 300 300 300 299 299 299
333 333 332 331 330 330 329 329 329 328 328 327 327 327 326 326 325 325 325 324 323 323 322 322 321 320 319 319 318 317 316 315 314 313 311 308 305 303 302 302 302 302 302 302 301 301 300 300 300 299 299 299 299 299 298 298 298 299 301 302 303 303 302 302 302 302 300 298 297 299 300 300 300 300 300 300 300 300 300 300 300 299 299 298 298
331 331 330 329 327 327 327 327 328 328 327 327 327 326 326 325 325 325 324 324 323 323 323 322 321 320 320 319 318 317 316 315 314 313 311 307 304 303 302 302 302 302 302 301 301 300 300 299 299 299 299 298 298 298 298 297 297 296 297 298 300 302 303 302 302 303 301 299 298 299 300 300 300 300 299 300 300 300 300 299 298 298 298 298 298
329 329 329 328 327 327 327 328 328 327 327 327 326 326 326 325 325 324 324 323 323 322 322 322 321 320 320 319 318 317 317 316 315 314 311 307 304 304 303 303 303 302 302 301 300 298 298 298 297 298 298 298 298 298 297 297 296 296 296 296 297 299 301 301 302 302 301 299 299 299 300 300 299 299 299 300 300 300 299 299 298 298 298 298 298
329 329 329 329 328 328 328 329 329 328 327 326 326 325 324 324 323 322 322 322 321 321 321 321 320 320 319 318 318 317 316 316 316 315 312 309 306 306 305 304 303 303 303 302 301 299 298 297 297 297 296 296 296 296 296 296 296 296 296 295 295 296 296 297 298 298 298 298 298 299 299 299 299 299 299 300 300 299 299 299 299 299 299 299 299
330 330 330 329 329 329 329 329 329 328 327 326 325 323 323 322 321 321 320 320 320 320 320 320 319 318 318 317 316 316 315 315 315 315 313 310 308 308 307 305 304 304 304 303 302 301 299 298 298 297 296 296 295 294 294 294 294 294 294 295 294 294 294 294 294 294 295 296 298 299 299 299 298 298 299 299 299 299 298 298 299 299 299 299 299
329 329 329 329 328 328 328 328 327 326 325 324 323 322 322 321 320 319 319 320 319 319 319 318 318 317 317 316 315 314 314 314 314 314 312 310 309 308 307 306 305 305 305 304 304 302 300 300 299 298 296 295 294 293 293 293 293 293 293 293 293 293 292 292 292 294 295 296 298 298 299 299 298 298 299 299 299 298 298 298 298 299 299 299 299
326 327 327 327 326 326 326 325 325 324 324 323 322 321 321 319 319 318 319 319 319 318 318 317 317 316 316 315 315 314 313 313 313 313 311 310 309 308 307 307 306 306 305 305 304 303 302 301 300 299 297 295 293 293 292 292 292 292 292 292 292 292 292 292 293 294 295 296 296 297 298 298 298 299 299 299 298 298 297 298 298 298 298 299 299
325 326 325 325 325 325 324 324 324 323 322 321 320 318 318 317 317 317 317 317 317 316 316 315 315 315 315 314 314 313 312 312 312 311 310 310 309 308 307 307 307 306 306 306 305 303 302 302 301 300 298 297 295 293 292 292 292 292 292 292 292 292 292 292 293 293 294 294 295 295 295 296 297 297 297 297 297 297 297 297 297 298 298 298 298
325 325 325 325 325 324 323 323 322 321 320 319 318 317 316 315 315 314 314 314 314 314 314 314 314 314 313 313 313 312 311 311 311 310 309 309 308 307 307 307 307 307 306 306 305 304 303 302 301 300 300 298 297 295 293 292 292 292 292 292 293 293 293 293 293 293 293 294 294 294 295 296 296 297 297 297 297 297 297 297 297 298 298 298 298
325 325 325 324 324 323 322 321 321 320 319 319 318 317 316 315 314 313 313 312 312 312 312 312 312 312 312 312 311 311 311 310 310 309 309 308 308 307 307 307 307 306 306 305 304 303 302 302 301 301 300 300 299 297 295 293 292 291 292 292 293 293 293 293 294 295 296 296 296 296 296 296 297 297 297 297 297 297 297 297 297 297 298 298 299
324 324 324 323 322 321 320 320 320 319 319 318 318 317 317 316 315 314 313 312 312 311 311 311 311 310 310 310 310 310 310 310 309 309 309 309 308 308 307 307 306 305 304 303 303 302 302 302 301 301 300 300 299 298 296 294 293 292 292 293 293 293 294 295 296 298 298 298 298 298 298 298 298 299 298 298 298 297 297 296 297 297 298 299 300
323 323 323 322 320 319 319 318 318 319 318 318 318 317 316 316 315 314 314 313 312 311 311 310 310 310 310 310 310 310 309 309 309 309 309 308 308 308 307 306 305 303 303 302 302 301 301 301 301 301 300 300 299 298 297 295 294 293 293 294 295 295 296 298 299 299 299 298 298 299 300 300 300 299 299 298 298 297 297 297 297 298 299 300 300
320 320 320 320 319 318 318 318 318 318 317 317 317 316 316 315 315 314 314 313 312 311 311 310 310 310 311 310 310 309 308 308 308 308 308 308 308 307 307 306 305 303 302 302 301 301 300 300 300 300 299 298 298 297 297 296 295 294 294 295 296 297 298 300 300 299 299 299 300 300 300 300 299 299 299 299 298 297 297 298 298 299 299 300 300
316 316 317 318 318 317 317 317 316 316 316 316 316 316 315 315 314 314 313 313 312 311 311 310 310 310 310 310 310 309 309 308 307 308 308 308 307 307 307 306 305 303 303 302 301 301 300 299 299 297 296 295 295 295 296 296 295 295 294 295 296 297 298 299 299 298 298 299 299 300 300 300 300 300 300 299 299 298 298 298 299 299 299 300 300
316 316 316 315 315 315 315 314 314 313 313 313 314 314 314 314 314 313 313 312 311 311 310 309 309 308 308 308 309 309 309 308 308 307 307 307 307 307 306 306 305 304 303 302 302 301 300 299 297 297 296 295 295 295 294 294 294 294 294 294 295 296 297 297 298 298 298 298 299 299 299 299 300 300 300 299 299 299 298 298 299 299 299 299 299
316 316 315 315 315 314 313 312 312 311 311 311 311 311 312 313 313 312 312 311 311 310 310 309 308 308 308 308 308 308 308 308 308 307 307 307 306 306 305 305 304 304 303 303 302 301 300 299 298 298 298 298 298 297 296 295 294 294 294 293 293 294 296 297 297 298 298 298 298 298 298 299 300 300 300 299 299 299 299 299 299 299 299 299 299
317 316 315 315 314 313 312 312 312 311 311 311 310 309 310 311 312 311 311 310 310 310 310 309 309 308 308 308 307 307 307 307 307 307 306 306 305 304 304 304 304 303 303 303 302 302 300 299 299 299 299 299 299 299 298 297 296 295 294 294 294 295 296 297 298 298 298 298 299 299 299 300 300 300 300 300 300 300 299 299 299 299 299 299 299
317 316 315 315 314 313 313 313 312 311 311 311 310 308 309 311 311 310 310 310 310 309 309 309 308 308 308 308 307 307 306 306 306 306 305 305 304 304 304 303 303 302 302 302 303 302 301 300 300 300 300 300 300 299 299 299 298 297 296 296 296 297 298 298 299 299 299 300 300 300 300 300 300 300 300 300 300 299 299 299 299 299 299 299 299
Wind_Speed
44 43 39 37 37 37 38 38 37 36 34 33 33 33 32 32 30 28 26 25 24 24 24 24 23 21 20 19 17 16 16 17 18 19 19 18 18 16 15 15 15 15 16 15 15 14 12 12 11 12 12 11 11 11 11 11 10 9 9 9 9 11 12 13 14 14 13 11 10 10 10 11 11 11 10 10 11 11 12 13 14 15 15 14 13
45 43 40 38 38 38 38 38 37 36 34 33 33 33 33 32 30 28 27 25 25 24 24 23 22 20 19 18 17 17 16 16 17 18 18 18 16 15 15 16 16 17 16 16 15 14 13 12 12 12 12 12 11 11 11 11 10 9 9 9 8 8 9 10 10 11 10 9 9 9 9 9 10 11 11 11 11 11 11 11 12 13 14 15 14
45 44 41 39 39 38 38 38 37 36 34 34 33 33 33 32 30 29 27 26 25 24 24 23 22 20 19 18 18 17 17 17 17 17 17 17 15 15 15 16 17 17 16 15 15 14 13 13 13 13 12 12 12 12 11 11 10 9 8 8 7 6 7 7 7 7 8 8 7 7 7 8 9 10 10 10 10 10 10 10 10 12 13 14 14
45 44 42 40 39 38 38 37 36 35 34 33 34 34 34 32 30 29 27 26 25 24 24 23 22 21 19 18 18 18 18 18 18 18 17 16 15 15 16 17 17 16 15 15 15 14 14 13 13 13 13 12 12 12 11 11 10 8 7 7 7 6 6 6 6 5 5 6 6 6 6 7 8 9 9 7 6 6 7 7 8 10 12 13 13
45 44 42 41 39 37 36 36 35 34 32 33 34 36 34 32 30 28 27 25 25 24 24 23 22 21 20 19 18 18 18 18 17 17 17 16 15 15 16 17 17 16 15 15 15 14 14 13 13 13 13 12 13 12 11 10 9 8 7 7 7 7 6 6 5 5 5 5 5 5 5 6 7 8 8 7 5 4 5 6 7 9 11 12 12
45 44 42 41 39 36 35 36 35 34 33 34 35 35 33 31 30 28 26 25 25 24 23 22 21 21 20 19 18 18 18 17 17 17 16 16 16 16 16 17 17 16 16 16 15 14 14 14 14 14 13 12 12 12 11 10 9 8 7 6 7 6 6 6 5 5 5 4 4 4 4 5 6 6 7 9 9 8 6 6 8 10 12 13 14
44 43 42 41 39 36 35 35 35 34 34 35 35 33 33 32 29 27 25 25 24 24 22 21 21 20 19 18 18 18 17 16 16 17 17 17 16 16 17 17 17 17 17 16 16 15 15 14 14 14 13 13 12 12 10 9 9 8 7 6 6 6 6 6 5 5 4 3 3 3 3 4 5 6 8 9 11 12 12 10 10 13 15 15 16
44 43 42 41 40 37 34 34 34 35 35 35 34 33 33 31 28 26 25 24 24 23 21 21 21 20 19 18 18 17 17 17 17 18 17 17 16 16 17 17 18 18 18 17 17 17 16 15 15 14 13 12 11 10 9 8 7 8 7 6 6 6 6 5 5 4 4 3 3 3 3 5 6 7 8 10 11 13 16 16 15 17 18 18 17
45 44 43 43 41 37 34 33 34 35 36 35 35 34 32 30 27 26 25 23 23 23 22 21 20 19 19 18 18 17 17 17 17 17 17 17 16 16 17 18 18 18 19 19 18 17 17 16 15 14 13 12 11 10 9 8 8 8 7 6 6 6 6 6 6 5 5 4 4 3 3 5 5 5 8 10 12 15 17 17 16 18 19 18 16
46 45 44 43 41 39 36 33 32 34 36 35 35 34 32 30 27 26 25 23 22 23 23 21 20 20 19 18 18 18 18 18 17 16 16 16 16 16 17 18 19 19 19 19 19 18 17 16 15 13 12 11 9 8 7 7 7 7 7 7 7 6 7 8 8 7 7 6 5 3 2 3 4 5 8 10 11 15 16 15 16 18 20 20 18
46 45 45 44 41 40 38 33 31 33 35 34 34 33 32 30 28 27 26 23 22 23 23 22 21 20 18 18 18 18 18 17 16 16 16 16 16 16 16 18 19 20 19 19 19 18 17 17 15 13 12 10 9 9 8 7 7 7 7 7 7 7 8 9 9 8 8 7 6 4 3 3 2 4 8 9 11 15 15 14 16 19 19 20 21
46 46 45 43 41 41 38 34 33 33 34 33 34 34 32 31 30 28 27 24 23 24 24 22 21 20 18 17 18 18 17 16 15 15 15 16 16 16 16 18 19 20 20 19 19 18 18 17 15 14 13 13 12 13 12 10 9 9 8 8 7 8 9 10 10 10 9 7 7 6 5 3 1 4 7 8 10 14 14 12 15 18 17 17 19
46 45 44 43 43 42 38 36 34 34 34 33 34 34 32 32 32 30 27 25 25 25 24 22 21 21 18 17 17 17 16 15 14 14 15 15 16 16 16 18 19 20 20 20 19 19 19 17 16 16 15 15 15 14 13 11 10 10 10 9 9 9 10 11 11 11 9 8 8 7 5 3 2 4 7 8 10 13 14 12 14 17 16 15 17
46 45 44 43 43 40 37 37 36 34 34 34 34 33 32 34 33 29 26 26 27 26 24 22 22 22 19 17 17 16 16 15 14 14 15 15 16 16 17 18 19 20 20 20 20 20 20 19 18 17 16 16 16 15 14 12 11 11 11 11 11 11 12 12 12 11 10 9 8 8 6 4 3 4 5 7 9 12 14 13 14 16 15 14 15
45 44 44 44 42 39 39 39 36 34 34 36 35 33 33 34 32 28 26 27 27 27 25 24 24 22 18 16 15 15 14 14 14 15 15 15 16 17 17 18 19 19 20 20 20 20 21 20 17 16 16 16 15 14 13 13 12 12 12 12 12 13 12 12 12 10 9 9 8 7 6 5 5 4 5 6 7 11 13 12 14 16 15 13 14
45 44 44 43 42 41 40 38 35 35 35 36 37 36 35 33 29 28 28 28 28 27 25 25 25 22 17 15 13 13 13 14 15 15 15 15 16 16 16 18 19 20 20 21 20 20 20 19 17 15 15 15 14 14 14 14 14 13 14 13 13 13 13 12 11 9 7 7 8 7 6 6 6 5 5 5 6 9 11 11 13 15 14 13 14
45 45 44 43 43 43 40 36 34 35 36 36 37 38 36 31 28 29 30 29 30 28 25 25 25 21 16 13 11 11 13 15 15 16 16 15 15 15 16 17 19 20 20 20 20 19 19 18 17 16 15 15 15 15 15 15 15 14 14 14 14 14 13 12 10 8 7 7 7 6 6 6 6 5 5 4 5 8 9 10 12 13 13 13 15
45 45 44 44 45 44 40 36 35 37 38 38 37 37 35 29 27 29 29 30 30 27 24 25 25 21 16 13 11 11 13 14 15 16 16 16 16 15 16 17 19 19 19 19 19 19 18 17 17 17 16 15 15 16 16 17 16 15 15 16 15 14 13 12 10 9 8 8 8 7 6 6 6 7 6 5 5 7 8 10 12 13 12 12 14
46 45 45 45 44 44 41 36 33 35 39 40 37 34 31 28 27 27 29 31 29 23 22 26 25 21 18 16 13 13 13 14 15 16 17 17 17 16 16 18 20 19 19 19 19 18 17 17 17 17 16 16 16 16 18 17 16 15 16 17 15 13 12 11 10 9 9 9 8 7 6 7 8 8 6 5 6 6 7 9 11 12 12 11 13
45 44 44 44 44 43 40 37 35 35 38 40 37 31 27 26 27 27 29 33 28 21 22 27 25 22 22 19 15 13 14 15 15 16 17 17 17 17 17 19 20 19 19 19 19 18 17 17 17 17 17 17 17 17 17 16 15 16 17 17 15 12 11 11 11 10 9 9 8 8 8 9 10 9 7 6 6 6 7 8 10 11 11 11 12
43 43 43 43 43 42 41 40 39 35 33 35 34 28 25 26 25 26 30 33 28 20 21 27 27 25 25 21 16 15 15 16 16 17 17 17 17 18 19 19 19 19 19 20 19 18 17 16 17 17 17 18 17 16 16 15 15 17 18 17 14 11 10 11 11 11 10 10 9 8 9 10 11 10 8 7 6 6 6 7 9 10 10 10 11
41 42 42 41 41 42 42 39 36 32 32 36 34 29 27 26 25 25 28 31 27 20 20 25 29 28 26 22 19 19 19 18 17 17 18 18 18 18 19 19 19 19 20 21 20 19 18 16 16 17 17 17 16 15 15 15 16 17 17 15 13 11 10 10 11 11 11 11 10 9 9 10 10 8 6 5 5 6 6 6 8 9 8 9 10
41 41 41 39 38 37 35 33 33 34 37 39 35 29 27 27 26 25 26 30 29 23 20 24 28 29 27 24 23 22 22 21 20 18 18 18 18 19 19 19 19 20 22 22 20 19 18 17 16 16 17 17 16 16 16 16 17 17 15 13 13 12 12 12 12 11 12 11 11 10 9 9 9 6 5 5 5 5 6 7 8 7 7 8 8
39 40 39 37 35 34 34 35 37 38 39 39 36 30 25 24 25 25 27 31 29 23 21 24 27 29 29 28 26 24 23 23 21 19 18 19 19 20 20 20 21 22 23 22 20 19 20 19 17 16 17 18 18 17 16 16 16 15 13 11 12 13 13 13 12 12 12 12 12 10 9 9 8 6 6 6 6 6 7 8 7 6 7 8 7
38 39 38 36 34 35 38 40 41 42 41 39 36 29 23 23 24 24 26 29 27 22 21 24 26 28 31 30 27 25 24 24 22 20 20 20 20 21 22 22 23 23 23 22 21 20 21 21 19 18 18 20 19 18 17 16 15 15 13 12 13 14 14 13 13 13 12 12 11 10 10 10 10 9 9 8 8 9 9 8 7 6 7 8 6
38 38 37 36 36 38 41 43 43 42 39 36 33 28 23 21 21 20 22 25 26 24 23 24 26 28 30 29 26 25 25 25 24 22 21 21 21 23 24 24 24 23 23 22 21 21 22 23 23 22 21 22 23 22 20 17 15 15 15 14 14 14 13 13 12 13 12 12 12 11 10 10 11 10 10 11 11 10 10 9 8 7 8 9 7
36 38 37 35 35 37 40 40 40 38 35 32 33 30 25 21 19 19 20 24 26 26 25 26 27 27 26 26 26 26 26 26 23 21 21 22 22 24 25 25 25 24 24 23 22 22 23 24 25 26 26 26 26 25 23 20 18 17 16 16 15 14 13 12 12 13 13 13 13 13 11 11 11 11 11 12 11 10 9 9 9 8 8 9 9
35 37 37 34 34 36 37 37 36 34 32 31 31 29 25 20 18 16 17 20 23 25 26 26 24 21 20 22 25 27 28 26 22 20 20 20 21 23 24 25 25 25 25 24 23 23 24 25 26 27 28 28 27 26 25 23 21 19 18 17 17 16 15 15 14 13 13 14 14 14 13 12 11 11 11 11 10 9 8 9 9 9 9 10 11
33 35 35 34 36 38 36 34 31 30 30 30 30 29 26 20 16 14 14 16 18 20 20 19 16 16 18 20 22 24 23 20 17 15 15 16 18 21 22 22 22 22 22 23 23 24 24 25 27 28 28 27 26 25 25 23 22 21 20 19 19 19 18 17 16 14 14 15 15 15 14 13 12 12 12 12 10 8 8 9 10 11 11 12 12
34 36 35 34 36 36 33 31 30 29 28 28 29 30 29 23 17 14 15 16 17 18 18 16 15 16 18 18 17 16 13 11 10 10 11 13 15 17 18 19 20 20 20 20 21 23 24 25 26 27 28 28 28 27 25 24 23 23 22 20 20 21 21 20 17 15 15 16 16 16 15 14 14 13 13 13 11 9 9 10 11 13 14 14 14
34 35 36 35 35 32 30 29 29 27 27 27 28 30 28 23 18 16 16 16 17 17 18 18 17 17 17 16 13 11 9 8 9 10 12 13 13 13 15 16 17 18 18 19 21 22 24 25 25 26 27 29 30 30 28 27 25 25 23 22 21 22 23 21 18 16 16 17 17 17 16 15 15 13 13 12 12 12 12 12 13 15 16 16 16
29 33 35 33 30 27 25 25 25 25 25 25 26 26 23 20 18 18 17 17 17 17 16 16 15 15 14 13 11 10 9 9 11 13 15 16 14 13 13 14 15 15 16 18 20 22 23 24 24 24 25 27 30 31 31 30 28 26 25 23 22 22 22 21 19 17 18 18 18 18 17 15 14 13 13 13 14 14 14 14 14 15 16 16 16
26 28 30 27 25 23 22 22 22 22 20 20 20 21 19 17 16 15 15 16 16 15 15 14 14 13 12 11 10 10 10 11 12 14 15 15 14 13 14 14 15 15 16 18 20 21 22 23 24 25 25 26 27 28 30 32 31 29 27 24 22 21 21 20 18 18 18 18 18 18 17 16 14 14 13 13 14 15 16 15 15 15 17 17 18
26 23 23 22 21 20 20 19 18 17 16 16 17 17 16 14 13 13 14 15 15 15 15 14 14 13 12 12 12 11 11 12 13 13 13 13 14 14 14 15 16 16 17 18 19 20 21 23 24 24 25 25 26 26 28 30 32 32 31 27 23 21 20 20 20 18 18 18 18 18 17 16 15 14 14 13 14 14 14 14 14 15 16 17 18
23 21 20 20 20 19 18 17 15 14 14 14 14 14 14 14 14 14 14 15 15 16 17 15 14 13 13 13 13 13 13 13 14 13 12 14 16 17 17 17 17 17 18 18 19 20 21 21 22 23 23 24 25 25 26 27 28 30 31 30 27 24 23 22 21 20 20 19 19 18 17 16 15 14 13 13 13 13 12 11 11 12 13 14 15
18 19 17 17 18 18 18 16 15 14 14 14 14 13 13 14 14 14 14 14 15 16 17 17 16 15 15 14 14 15 15 15 15 14 14 15 18 19 18 18 17 16 17 17 18 18 18 18 19 19 20 21 22 23 24 25 26 27 28 28 29 28 27 26 24 23 21 20 18 17 16 16 15 14 14 13 12 10 9 9 9 10 11 12 14
15 15 14 14 16 17 17 17 17 17 16 15 14 13 13 13 13 12 12 12 13 15 16 18 18 18 16 15 14 15 16 17 17 17 16 17 18 19 19 17 16 16 17 16 16 17 17 17 17 17 18 19 20 21 22 23 24 25 26 27 27 27 27 27 25 23 21 20 17 16 16 16 15 14 14 13 10 8 8 9 9 9 11 12 14
13 13 12 13 13 13 14 15 17 17 16 15 14 13 12 11 10 9 9 10 10 11 12 14 15 15 14 14 13 14 15 16 18 19 19 19 20 19 18 17 16 16 17 16 16 17 17 16 16 17 17 18 18 19 19 20 22 23 24 24 24 24 23 23 22 21 20 19 18 17 17 17 16 15 15 13 10 9 10 11 11 11 12 14 15
12 11 11 11 11 10 11 11 12 13 12 12 11 10 10 10 9 9 9 9 9 10 10 10 10 10 11 12 13 14 15 17 18 19 19 20 20 19 17 16 16 17 17 16 16 16 15 15 15 15 16 16 16 16 17 18 19 19 20 20 21 21 20 20 19 19 19 19 19 19 19 17 15 15 14 13 10 9 11 12 13 13 14 15 16
12 11 11 11 10 10 9 9 10 11 11 10 10 10 11 11 11 10 9 9 10 10 10 9 8 8 9 11 12 13 15 16 17 17 17 17 17 17 16 16 16 17 18 17 17 16 15 14 14 14 13 13 14 14 15 16 16 17 17 18 19 19 18 18 18 18 19 20 20 20 20 18 15 13 13 12 11 11 12 13 15 16 16 17 17
13 13 13 12 11 10 10 11 11 12 11 10 8 8 9 9 10 10 10 10 9 8 8 7 7 7 8 8 9 11 13 14 15 15 15 15 15 15 15 15 16 17 18 17 16 16 15 14 13 13 13 12 12 12 13 14 15 16 16 16 16 16 16 17 17 18 19 19 19 20 20 18 15 14 13 12 12 13 14 16 17 17 17 17 18
14 14 14 13 13 12 12 12 12 11 11 10 9 9 9 8 8 8 9 9 9 8 6 6 6 6 7 7 8 9 11 13 14 14 15 15 15 15 15 16 17 17 17 16 15 15 15 15 14 14 13 12 11 11 11 12 13 14 14 14 14 14 14 15 15 15 16 17 18 18 17 15 13 12 12 12 14 16 18 18 19 18 17 17 19
14 14 14 14 14 13 12 11 11 11 11 10 9 9 9 8 8 8 7 7 8 7 7 7 7 8 8 8 9 10 12 13 13 13 13 14 14 14 14 14 14 14 14 14 14 14 15 16 16 15 14 13 12 11 11 11 11 13 13 13 13 13 13 13 13 13 13 15 16 15 13 12 12 12 14 17 20 21 20 20 20 20 19 18 18
13 14 14 14 14 13 12 12 11 11 11 10 9 8 8 8 8 7 6 6 6 6 6 8 10 11 11 11 10 11 11 11 10 10 10 10 11 10 10 9 10 10 11 11 12 14 15 16 16 16 15 14 13 12 11 11 11 12 13 13 13 13 13 13 11 10 9 10 11 11 10 10 11 14 17 21 21 20 18 18 18 19 18 18 16
13 14 14 14 14 14 14 13 12 12 11 11 11 10 8 7 7 7 6 6 5 5 5 6 8 10 11 11 11 10 9 9 9 9 9 8 8 7 7 8 8 9 9 10 10 12 14 15 15 15 15 14 14 14 13 13 13 13 13 13 14 14 13 13 11 8 7 8 9 9 9 10 11 14 18 19 18 17 17 17 17 18 17 16 15
13 14 14 14 14 14 14 13 12 11 11 11 11 10 9 8 7 7 7 7 7 6 5 5 6 7 8 10 11 10 10 10 10 10 10 9 8 7 8 9 10 10 10 10 10 11 12 13 14 14 14 13 14 15 15 16 16 16 15 15 15 15 14 13 12 10 10 10 11 11 11 12 13 14 16 16 16 17 17 17 18 18 18 16 15
13 13 12 13 13 13 12 11 10 9 9 9 9 8 8 8 8 8 8 8 8 7 6 6 6 6 7 9 11 12 11 11 11 11 11 10 9 9 10 11 12 12 12 11 11 11 11 11 11 11 11 10 10 12 13 16 17 18 18 18 18 18 17 16 15 13 13 13 13 14 15 15 16 16 16 17 18 18 18 18 19 20 18 17 17
13 13 13 13 13 12 12 12 11 9 8 7 6 5 7 8 8 8 8 8 7 7 6 4 4 5 6 7 9 11 12 13 13 12 12 12 12 13 13 13 14 14 13 13 12 11 11 11 10 10 9 8 8 8 9 12 15 18 19 20 20 20 19 18 16 15 16 16 17 17 18 18 18 18 18 18 18 18 18 20 21 19 17 17 19
11 11 12 12 12 13 13 13 11 10 9 8 6 4 3 6 8 9 8 8 8 8 6 3 2 2 2 3 4 7 10 12 13 13 13 12 11 12 12 12 13 14 15 15 13 12 11 11 11 10 9 8 7 7 8 9 11 13 16 18 18 18 18 17 17 17 17 18 18 19 19 20 20 19 18 18 18 18 20 21 21 19 18 19 21
10 10 10 11 12 14 14 12 10 9 8 6 6 4 0 4 7 8 8 9 10 10 6 3 2 1 1 1 2 4 6 7 9 9 9 9 8 8 9 9 10 12 14 15 15 14 13 12 12 10 9 8 8 8 8 9 9 11 12 14 15 15 15 16 16 16 17 17 18 19 19 20 20 20 19 18 19 20 21 22 21 21 21 22 23
10 9 10 11 12 13 12 10 8 7 5 4 4 4 2 3 5 6 6 8 10 9 6 3 3 2 2 2 3 4 4 6 7 8 8 8 8 8 9 9 8 9 10 12 14 14 14 13 12 11 10 10 11 11 11 11 11 11 11 12 13 13 14 14 14 14 15 16 17 18 19 20 20 20 20 19 19 20 21 21 21 22 23 24 25
Wind_Direction
213 213 214 216 220 220 220 220 221 223 225 226 229 231 233 235 236 235 235 236 238 241 246 249 248 245 245 248 250 244 238 232 230 232 232 231 231 230 231 234 234 235 233 232 233 232 232 235 236 239 242 241 242 243 244 243 238 235 231 224 222 223 223 226 227 225 226 231 240 255 270 287 302 310 314 321 326 329 331 334 337 338 338 341 342
213 214 214 216 220 221 220 220 221 222 224 226 229 231 234 234 235 235 236 237 239 244 248 248 244 242 243 247 250 248 243 236 233 234 233 232 231 231 233 234 235 235 233 232 233 234 234 235 236 239 241 241 242 242 244 245 243 242 241 237 231 224 221 219 219 220 225 235 249 264 278 293 305 311 319 328 331 330 331 334 338 343 343 343 348
213 214 214 216 219 220 220 219 220 221 223 226 229 231 233 233 233 234 235 236 240 245 247 244 241 240 242 246 247 245 242 238 236 237 235 234 234 234 235 236 236 236 236 235 235 237 238 237 239 241 240 239 240 241 244 246 247 248 248 245 237 228 221 218 220 225 230 240 255 270 283 294 304 315 327 333 332 326 327 331 340 350 351 345 348
213 213 214 217 219 219 219 220 221 222 223 225 228 230 231 231 233 233 234 235 240 243 242 239 238 238 241 244 243 239 237 237 237 238 236 235 235 236 237 238 237 237 237 238 239 241 243 242 241 240 239 238 238 240 244 247 250 253 254 246 230 218 214 212 215 225 234 246 262 276 285 295 309 321 329 334 331 326 330 335 338 351 359 355 351
212 213 214 216 218 219 219 220 222 222 224 227 229 229 229 231 232 231 231 234 238 239 237 235 235 236 238 240 240 237 235 236 238 238 237 236 235 236 238 238 238 237 236 238 240 242 244 243 242 241 239 239 240 242 244 249 254 257 253 240 224 217 215 211 213 223 235 250 267 282 297 309 320 328 331 336 342 345 359 5 358 354 359 0 358
212 213 214 215 217 218 218 220 222 224 226 227 227 228 230 231 231 229 230 233 235 235 234 233 234 234 236 237 237 235 233 235 238 238 239 238 236 235 236 235 235 237 237 237 238 239 241 241 240 240 239 241 245 247 249 253 257 254 243 228 224 225 222 218 223 230 241 258 272 288 309 321 328 334 339 347 352 355 4 18 19 13 4 358 357
211 213 214 214 216 218 219 220 221 222 223 224 227 231 233 232 228 227 229 231 233 233 230 229 230 231 234 237 234 231 231 233 236 237 238 238 237 236 235 232 232 234 236 237 236 235 236 238 238 238 238 241 246 249 250 252 250 243 233 224 228 233 230 230 236 240 249 270 286 304 329 344 347 348 353 357 358 359 1 4 12 16 12 4 357
211 213 213 213 216 219 218 216 218 221 224 226 230 233 233 230 225 225 229 231 231 230 227 225 227 229 232 235 233 229 229 232 234 236 236 236 237 237 236 234 232 232 234 233 233 232 232 235 237 236 236 238 241 241 242 240 233 232 232 231 236 240 238 239 240 242 251 263 279 305 336 351 350 348 352 356 360 4 6 4 3 4 6 8 3
210 212 213 214 217 220 219 216 217 222 224 227 230 231 231 228 223 225 231 234 231 228 225 223 226 229 232 233 232 229 229 231 232 235 237 238 238 237 236 235 234 233 233 232 231 231 231 233 234 233 232 231 230 231 231 227 224 228 234 240 246 246 246 247 245 244 250 253 259 285 330 349 351 349 349 355 2 6 5 3 2 359 358 4 9
208 211 213 214 217 220 220 219 220 222 223 225 228 229 229 225 222 225 232 235 232 228 225 223 224 227 231 232 232 230 230 232 233 234 237 240 241 240 237 235 234 234 234 234 234 232 230 231 230 226 223 220 220 223 223 225 230 237 243 248 253 255 255 256 252 248 250 249 253 273 321 346 359 356 349 354 3 6 5 2 0 359 358 2 9
208 211 212 215 218 218 217 219 222 222 222 224 226 227 226 224 223 226 230 234 232 228 227 226 225 225 229 231 233 233 233 234 233 233 235 237 239 239 237 236 235 234 234 235 236 235 232 229 222 217 215 215 221 223 218 225 242 252 256 254 254 257 256 257 256 253 252 252 260 285 315 331 347 346 342 351 3 3 4 3 360 2 4 4 6
209 211 213 215 216 215 216 220 222 220 219 221 223 225 225 225 225 224 226 232 231 227 228 229 227 227 229 232 233 234 235 236 234 232 233 234 235 234 236 237 236 235 235 235 236 236 233 229 226 227 228 230 234 231 226 232 242 245 245 242 245 252 252 254 256 254 252 257 270 291 309 313 318 327 332 348 2 0 1 3 1 4 8 8 8
208 210 212 213 213 214 218 220 218 217 217 219 222 223 224 226 224 222 225 230 229 228 231 232 228 227 230 233 235 235 234 232 230 229 230 231 231 230 232 235 237 238 237 235 236 235 234 236 241 244 240 236 237 236 234 236 232 227 227 228 233 242 247 250 253 251 252 259 272 286 296 290 279 311 329 346 358 356 357 1 2 3 7 10 10
207 209 210 212 213 216 219 217 214 214 216 218 220 223 226 226 222 222 227 229 226 227 232 233 228 226 229 233 234 235 233 230 229 229 228 229 229 228 230 233 236 238 238 238 239 240 243 249 252 247 241 235 235 236 234 231 225 221 224 230 234 239 244 249 252 252 252 258 271 283 285 279 279 302 328 345 352 352 353 358 360 0 2 6 9
206 207 209 211 213 217 216 213 212 213 215 217 219 223 225 222 220 224 228 227 225 228 234 236 229 225 229 233 233 234 233 231 230 229 227 228 228 227 229 233 234 236 239 243 244 244 249 254 251 242 237 236 235 233 230 229 228 227 229 233 238 244 249 253 255 255 253 257 271 282 280 274 277 296 324 340 346 347 350 354 356 356 357 357 1
204 206 208 210 213 214 212 210 211 213 214 217 220 222 221 219 222 228 226 223 224 229 236 238 230 225 229 233 236 239 236 232 231 228 226 229 229 227 230 233 234 236 239 243 246 246 250 253 247 237 235 237 235 231 229 230 231 231 234 239 243 249 255 257 256 254 255 261 274 285 282 275 276 288 312 328 338 342 345 349 352 353 353 349 353
204 206 208 210 211 211 210 210 212 214 214 216 219 220 218 219 226 227 222 221 223 229 238 236 226 224 231 236 243 248 241 235 232 228 226 229 230 229 232 233 235 239 241 244 249 252 255 255 247 237 236 236 231 228 230 234 235 237 241 245 248 252 257 259 256 254 260 268 275 282 281 270 265 274 293 309 324 333 338 345 349 351 352 350 351
204 206 208 210 210 210 210 210 212 214 214 216 218 218 218 221 225 223 223 224 225 231 239 232 223 225 232 237 247 253 246 241 237 231 229 231 233 233 236 237 238 240 242 246 252 256 258 255 246 239 236 231 224 227 235 240 243 246 248 249 251 255 258 260 257 255 262 269 276 287 285 264 252 261 278 293 309 323 332 340 346 348 352 355 352
206 208 209 210 211 211 211 210 212 216 217 215 216 218 220 223 223 222 225 224 224 232 237 228 224 228 230 231 238 245 246 243 240 235 233 236 240 240 239 240 241 242 244 249 252 255 257 253 245 241 234 223 222 232 240 244 247 251 252 253 254 255 259 262 259 258 264 273 285 295 284 259 250 258 271 283 294 310 326 335 341 345 348 354 352
207 208 209 209 210 211 211 211 214 216 217 215 214 217 223 225 222 223 223 220 221 231 232 224 224 229 230 228 231 241 246 242 240 239 238 241 246 245 243 243 244 245 250 254 255 256 257 252 247 244 232 221 225 237 244 246 249 249 252 256 255 253 257 260 258 257 262 268 278 282 265 251 251 257 266 276 281 296 315 327 334 340 345 349 350
207 208 208 209 210 211 212 214 214 215 218 217 215 217 223 223 221 221 220 217 217 224 226 222 224 229 230 229 231 241 245 242 241 242 241 243 247 247 247 249 250 251 256 260 259 258 259 257 253 247 236 227 230 240 247 248 249 250 252 254 252 249 254 258 256 255 257 259 265 266 255 249 252 258 265 269 268 280 304 321 329 334 341 345 345
208 208 208 209 210 210 211 212 213 216 219 217 213 214 219 220 219 220 220 219 218 218 221 224 226 228 229 229 233 239 240 239 240 240 241 245 248 250 253 255 255 254 257 261 261 260 262 264 258 250 244 239 240 250 257 257 255 256 254 249 246 248 255 261 259 256 255 259 263 262 254 251 252 255 260 258 257 275 295 311 320 327 337 341 340
208 208 208 208 209 210 210 212 216 219 220 216 211 211 216 217 217 220 222 220 217 214 218 225 227 229 229 230 233 237 237 238 239 239 241 244 247 251 255 256 255 256 259 262 264 265 268 270 263 251 246 248 252 261 267 265 260 258 253 246 247 252 256 261 263 262 259 261 265 263 253 247 246 242 243 250 265 286 299 304 309 317 332 338 335
206 206 206 206 208 211 214 218 219 219 219 217 211 208 213 217 217 220 225 222 217 214 221 226 228 230 231 231 234 237 238 238 238 240 242 244 247 250 253 253 253 256 260 263 265 267 268 268 264 252 246 249 256 263 265 261 256 250 244 245 253 256 257 259 262 263 261 260 264 264 251 242 243 247 255 269 287 302 307 306 303 308 327 335 330
205 206 206 207 210 213 215 216 217 214 215 217 213 207 211 218 218 220 225 223 219 220 227 229 231 233 234 234 236 240 242 239 238 240 242 244 246 248 250 252 253 256 259 261 263 267 266 264 263 257 250 250 255 258 258 256 251 243 238 245 254 257 259 259 258 261 261 258 260 260 247 239 245 258 272 283 295 302 304 303 299 303 318 325 318
206 207 208 209 212 214 213 213 214 213 212 215 214 210 211 216 215 218 223 222 221 225 230 231 233 237 238 239 240 244 246 243 240 242 244 245 245 245 246 249 251 253 255 256 260 263 261 258 260 260 257 254 254 256 257 256 254 247 241 245 253 256 258 258 257 260 260 256 254 251 240 235 244 259 275 286 293 298 298 295 293 298 309 314 309
206 205 206 208 213 215 213 213 214 211 208 209 210 210 212 215 216 219 221 220 220 223 228 231 233 237 241 243 244 245 246 243 242 245 246 247 247 246 247 248 248 249 251 254 259 261 258 254 255 256 257 257 256 256 253 251 253 251 246 246 252 254 254 255 257 260 260 257 255 249 240 238 247 260 272 280 289 297 295 287 288 297 305 306 307
206 204 205 208 212 214 213 215 215 211 206 206 209 209 211 215 221 225 226 223 220 222 226 229 231 235 242 246 248 248 247 245 247 251 252 252 253 252 251 251 251 252 256 259 262 262 258 254 252 252 254 256 255 253 250 249 252 255 251 249 250 251 251 254 259 266 268 264 260 254 245 242 249 259 267 275 286 296 292 284 287 299 304 301 301
207 206 207 210 212 211 211 213 213 208 206 208 210 211 212 214 221 231 236 234 229 227 229 230 230 234 242 250 256 257 256 256 260 263 263 262 261 260 259 259 261 263 265 267 266 263 259 255 253 253 253 254 254 253 252 251 253 257 257 253 251 252 253 255 262 272 275 268 262 258 250 244 248 258 266 273 280 285 284 284 290 298 303 301 299
206 206 207 211 213 209 205 204 203 202 205 209 211 214 215 215 221 230 239 241 236 231 229 229 231 241 250 258 265 268 268 269 268 263 257 255 258 261 262 263 265 266 267 266 264 262 258 254 253 254 253 252 252 253 254 254 256 260 262 259 256 257 257 257 262 272 276 270 263 258 254 251 252 259 267 271 274 273 272 277 285 291 296 298 298
203 205 207 210 210 204 199 199 200 202 207 211 215 215 214 215 220 225 233 240 238 234 232 232 238 248 255 261 265 262 255 247 241 238 238 239 245 251 253 254 256 256 256 257 257 257 255 253 254 255 255 254 253 252 253 255 257 260 263 260 258 258 258 258 262 271 277 273 262 256 256 257 257 260 266 270 273 273 272 275 280 286 291 295 297
203 207 207 205 201 196 193 196 201 204 208 213 218 217 216 222 226 225 227 232 233 234 238 241 246 252 255 256 254 247 237 229 225 225 229 232 236 239 238 237 238 240 243 247 251 252 252 252 253 254 255 255 254 253 254 255 256 258 260 260 257 256 257 258 263 271 277 274 263 255 256 256 257 262 267 270 272 272 272 274 278 284 288 292 295
201 203 201 195 189 189 191 194 197 201 204 208 214 217 221 227 229 226 226 225 222 223 229 234 236 237 237 239 240 238 235 231 225 222 224 227 232 233 228 224 223 226 233 239 244 247 249 249 251 251 251 253 254 254 254 255 256 257 259 259 258 255 254 257 262 270 277 276 264 254 252 251 255 262 267 269 271 272 272 275 279 285 289 291 291
193 183 181 181 181 182 186 190 194 198 202 207 212 217 221 224 224 223 222 218 213 212 216 221 224 226 229 233 235 235 235 234 231 228 226 223 222 220 218 219 222 225 232 238 243 246 248 249 250 250 250 251 253 254 255 255 256 257 258 260 260 255 252 255 261 269 277 275 261 251 248 250 256 264 267 268 270 273 275 279 284 290 294 297 297
179 170 170 176 177 175 179 188 193 197 202 207 211 215 218 220 221 223 223 221 221 219 217 217 220 223 227 231 234 236 236 235 234 232 226 219 216 214 215 221 228 233 238 245 250 253 254 255 256 256 256 255 255 255 256 257 258 259 260 262 261 259 257 259 262 268 274 271 261 253 251 253 258 265 267 266 267 271 277 285 292 296 300 304 305
169 173 176 184 188 189 192 198 200 200 203 206 209 214 221 226 230 233 235 236 237 234 230 228 226 227 227 229 233 239 240 238 238 236 228 219 219 221 224 230 236 244 252 257 261 262 264 265 266 266 266 264 263 262 261 260 260 261 261 262 262 261 261 261 263 267 271 269 261 254 251 253 259 266 266 263 262 267 281 295 301 304 306 308 305
172 177 183 194 201 205 207 210 212 214 216 217 220 226 232 238 244 245 242 238 237 237 238 239 239 238 235 232 235 241 241 239 239 238 233 226 224 228 233 237 244 254 262 267 270 270 270 271 272 273 273 271 270 269 268 266 265 263 263 263 262 261 261 262 262 264 265 261 253 247 248 252 257 262 262 258 257 268 288 297 300 306 314 316 313
181 185 191 195 199 205 212 217 222 224 225 226 229 233 234 235 235 230 222 218 221 228 238 247 250 247 241 238 241 244 241 236 234 235 234 230 229 232 238 243 250 258 266 273 275 273 272 273 276 277 277 275 274 273 271 270 269 266 265 264 263 261 259 258 257 257 257 253 247 245 247 252 256 258 257 254 255 269 284 288 292 300 307 311 312
176 185 193 194 194 199 207 217 223 224 225 226 224 218 213 207 200 198 202 206 213 222 230 237 238 233 231 235 239 238 233 230 231 233 235 234 234 239 244 249 256 264 272 278 279 275 276 279 282 283 283 281 279 276 272 269 268 266 264 263 261 259 256 253 252 252 252 252 251 248 248 252 256 255 250 246 251 269 282 286 289 294 298 300 303
171 178 184 184 182 186 193 203 207 204 203 204 201 196 197 198 198 201 205 209 214 217 217 217 220 225 234 242 243 239 234 231 232 237 243 245 247 250 252 257 265 273 279 283 282 278 278 281 283 285 286 284 282 279 274 268 264 262 262 262 260 258 255 252 251 251 252 253 253 251 251 254 253 244 239 242 254 269 279 282 284 286 290 294 298
170 169 169 166 166 171 178 182 182 179 179 179 174 170 175 182 188 192 194 196 200 203 204 209 221 234 242 244 241 236 234 234 238 243 249 253 256 258 260 264 270 275 280 282 280 276 274 275 276 279 281 281 281 279 274 268 263 259 258 258 257 255 253 250 249 250 250 251 252 253 254 253 247 241 243 250 261 271 278 281 282 282 285 291 297
169 166 163 160 160 163 167 168 166 166 167 163 153 148 149 148 151 161 168 173 180 185 192 202 214 221 222 219 216 218 222 227 234 240 245 251 256 258 260 262 265 269 273 274 272 269 268 266 265 267 270 273 275 274 272 268 262 256 255 255 253 251 249 247 246 247 248 249 252 252 249 241 237 241 251 259 268 276 280 279 276 274 277 287 295
165 161 158 157 158 159 161 164 165 167 166 162 157 156 155 146 138 139 143 150 163 176 188 196 202 207 209 207 207 212 218 225 234 240 245 250 254 257 259 260 262 266 269 268 264 261 259 256 255 257 259 263 267 268 267 264 259 254 252 251 248 247 244 241 241 245 250 252 250 244 234 231 242 259 271 277 281 283 281 276 271 270 275 285 291
161 159 160 162 163 163 161 161 163 165 167 166 164 165 163 157 153 151 152 159 172 186 193 196 198 199 200 203 210 217 223 232 241 245 248 251 253 253 252 252 257 262 264 262 258 254 251 250 250 252 254 256 258 258 257 255 252 249 245 242 241 241 236 232 233 241 248 248 241 233 235 252 271 281 284 285 284 281 277 274 273 273 276 281 284
157 160 164 166 167 167 165 164 166 169 171 172 173 173 172 169 166 166 171 180 190 198 199 199 202 201 199 202 210 218 225 232 236 239 245 250 250 245 239 241 249 256 259 258 256 252 249 248 248 249 250 251 249 247 245 243 241 240 238 237 238 237 231 227 230 238 242 238 234 235 248 266 278 282 282 282 279 275 273 274 274 274 275 277 277
154 159 163 165 166 166 168 172 176 176 174 174 175 176 178 180 181 182 182 180 178 180 187 200 212 213 210 208 208 209 213 219 224 230 238 243 242 237 236 238 244 248 251 255 256 254 252 250 249 249 249 247 245 244 242 239 236 234 232 232 233 231 228 227 233 241 247 247 244 245 252 260 266 270 273 274 273 272 272 273 273 274 274 275 276
142 146 151 155 157 160 164 168 168 163 161 163 167 173 180 185 186 185 182 175 169 170 182 201 217 222 219 214 211 209 210 213 217 222 228 232 236 239 240 240 241 241 244 247 250 251 252 250 248 248 248 246 245 245 242 240 237 234 231 229 227 225 226 230 236 244 251 251 249 249 253 257 260 264 268 271 272 272 272 272 273 272 272 274 279
139 140 144 148 152 153 150 143 132 122 117 119 130 154 176 182 182 181 179 174 171 173 179 194 212 215 211 208 208 208 209 209 213 219 223 226 231 237 241 243 242 241 241 242 243 244 245 243 241 243 244 244 247 250 247 244 241 237 233 232 230 228 229 233 238 244 250 252 252 253 254 255 260 267 270 271 272 273 275 277 275 271 269 274 282
150 150 149 148 146 142 134 123 111 100 92 85 83 99 165 186 186 183 178 172 170 169 167 165 167 162 160 184 205 212 212 213 215 220 224 227 232 238 243 246 247 245 244 241 237 235 235 233 230 231 235 239 247 254 256 255 250 242 237 235 234 233 234 238 242 247 251 253 253 255 256 258 264 269 269 268 269 271 276 280 279 275 273 277 282
166 160 152 148 145 140 135 127 111 96 85 72 62 54 108 200 192 186 180 174 170 166 163 174 194 164 77 36 260 250 243 232 224 220 222 226 236 246 254 258 258 254 250 243 235 230 230 228 225 227 233 239 246 252 254 256 255 249 242 238 236 236 238 242 246 250 252 252 254 256 258 261 265 266 265 267 270 272 275 278 280 278 277 277 279
180 167 154 150 149 147 145 134 109 88 77 67 58 56 72 180 182 178 172 168 168 166 167 190 227 252 316 322 296 274 257 240 231 231 236 241 248 257 263 265 263 256 248 239 231 227 226 226 225 229 235 240 245 248 249 250 251 248 244 241 240 240 242 244 246 248 251 253 256 258 260 261 263 265 267 270 273 275 276 278 279 278 277 278 281